Погода в Шишково

Россия / Новгородская область     57°35′31″N   32°33′37″E
темп.,
°C
ветер,
м/с
пор.,
м/с
влажн.,
%
обл.,
%
осадки,
мм/ч
давл.,
гПа
погр.,
м
16 июня, ср
ср1600:00+13зюз2497100 0.0 1013103
03:00+11з22985 0.1 101445
06:00+11зсз12930 0.0 1015101
09:00+17ссз345083 0.0 1016701
12:00+20сз344024 0.0 10171748
15:00+21сз45355 0.0 10171968
18:00+20ссз344066 0.0 10181705
21:00+14з11697 0.0 101911
17 июня, чт
чт1700:00+11с01745 0.0 102110
03:00+10ююз11775 0.0 102312
06:00+13ююз127390 0.0 102364
09:00+19зюз23524 0.0 1024500
12:00+22з34390 0.0 10241716
15:00+24зсз34371 0.0 10241980
18:00+23сз2345100 0.0 10241741
21:00+17всв22750 0.0 102518
18 июня, пт
пт1800:00+14юв22720 0.0 102615
03:00+13ююв22775 0.0 102637
06:00+15ю24775 0.0 1026103
09:00+22юз245179 0.0 1026549
12:00+26зюз343825 0.0 10251525
15:00+27зюз45355 0.0 10241860
18:00+26зюз35465 0.0 10231745
21:00+20ююз22730 0.0 102332
19 июня, сб
сб1900:00+17ююз39780 0.0 1024178
03:00+15ююз29900 0.0 1025175
06:00+17ююз38840 0.0 1025254
09:00+23юз46580 0.0 1025768
12:00+26юз45430 0.0 10241547
15:00+28зюз45370 0.0 10231884
18:00+27зюз35460 0.0 10221790
21:00+21ююз22750 0.0 102217
20 июня, вс
вс2000:00+18ю39835 0.0 1023184
03:00+16ю3889100 0.0 1023176
06:00+18ю39836 0.0 1023299
09:00+23ююз46576 0.0 1022805
12:00+27ююз45392 0.0 10211546
15:00+28юз46314 0.0 10201868
18:00+27зюз36420 0.0 10191751
21:00+21ююз22710 0.0 102025